Find STARLINK-37268

NORAD ID: 70480 Constellation: starlink operational
LEOCIRCULARRETROGRADE

リアルタイム位置

3D地球を読み込み中...

STARLINK-37268について

説明を読み込み中...

次回通過

Passes for default location (London). Set your location on the main map for personalized predictions.

高度履歴

Loading altitude history...

軌道要素

1 70480C 26082V 26106.32340278 -.00491760 00000+0 -54809-3 0 1068
2 70480 97.2886 327.8384 0009669 265.5586 316.2471 16.09639011 14
Epoch: Apr 16, 2026 • Age: 19 hours